| time (UTC) | temp F | wind direction | speed knots | gust knots | rain 1hr in | rain 24hr in | rain mn in | humidity % | barometer mb |
| 20260509231513 | 67 | 195 | 1.7 | 5.2 | 0.00 | 0.00 | 0.00 | 75 | 1026.3 |
| 20260509231019 | 67 | 239 | 1.7 | 5.2 | 0.00 | 0.00 | 0.00 | 76 | 1026.2 |
| 20260509230748 | 66 | 219 | 2.6 | 5.2 | 0.00 | 0.00 | 0.00 | 76 | 1026.1 |
| 20260509230010 | 65 | 175 | 2.6 | 4.3 | 0.00 | 0.00 | 0.00 | 77 | 1026.2 |
| 20260509225515 | 65 | 195 | 1.7 | 4.3 | 0.00 | 0.00 | 0.00 | 78 | 1026.1 |
| 20260509225022 | 64 | 218 | 1.7 | 5.2 | 0.00 | 0.00 | 0.00 | 78 | 1026.2 |
| 20260509224501 | 64 | 219 | 1.7 | 5.2 | 0.00 | 0.00 | 0.00 | 80 | 1026.2 |
| 20260509224005 | 63 | 199 | 0.9 | 3.5 | 0.00 | 0.00 | 0.00 | 80 | 1026.0 |
| 20260509223451 | 62 | 206 | 0.9 | 4.3 | 0.00 | 0.00 | 0.00 | 81 | 1026.0 |
| 20260509222957 | 62 | 206 | 1.7 | 4.3 | 0.00 | 0.00 | 0.00 | 81 | 1026.0 |
| 20260509222451 | 61 | 229 | 1.7 | 4.3 | 0.00 | 0.00 | 0.00 | 81 | 1025.9 |
| 20260509221953 | 61 | 234 | 1.7 | 4.3 | 0.00 | 0.00 | 0.00 | 82 | 1025.8 |
| 20260509221451 | 60 | 221 | 1.7 | 4.3 | 0.00 | 0.00 | 0.00 | 83 | 1025.7 |
| 20260509220957 | 60 | 222 | 1.7 | 4.3 | 0.00 | 0.00 | 0.00 | 84 | 1025.7 |
| 20260509220456 | 59 | 251 | 1.7 | 4.3 | 0.00 | 0.00 | 0.00 | 84 | 1025.7 |
| 20260509215949 | 58 | 212 | 0.9 | 4.3 | 0.00 | 0.00 | 0.00 | 85 | 1025.7 |
| 20260509215711 | 58 | 185 | 1.7 | 4.3 | 0.00 | 0.00 | 0.00 | 85 | 1025.8 |
| 20260509214952 | 57 | 189 | 1.7 | 4.3 | 0.00 | 0.00 | 0.00 | 85 | 1025.7 |
| 20260509214450 | 57 | 224 | 1.7 | 4.3 | 0.00 | 0.00 | 0.00 | 85 | 1025.8 |
| 20260509213945 | 57 | 249 | 0.9 | 3.5 | 0.00 | 0.00 | 0.00 | 85 | 1025.8 |
| 20260509213501 | 56 | 217 | 0.9 | 3.5 | 0.00 | 0.00 | 0.00 | 85 | 1025.7 |
| 20260509212938 | 56 | 219 | 1.7 | 4.3 | 0.00 | 0.00 | 0.00 | 85 | 1025.6 |
| 20260509212433 | 56 | 248 | 1.7 | 4.3 | 0.00 | 0.00 | 0.00 | 85 | 1025.5 |
| 20260509211934 | 55 | 224 | 0.9 | 2.6 | 0.00 | 0.00 | 0.00 | 85 | 1025.4 |
| 20260509211433 | 55 | 224 | 0.9 | 3.5 | 0.00 | 0.00 | 0.00 | 85 | 1025.3 |
| 20260509211124 | 55 | 218 | 0.9 | 3.5 | 0.00 | 0.00 | 0.00 | 85 | 1025.2 |
| 20260509210408 | 55 | 244 | 0.9 | 3.5 | 0.00 | 0.00 | 0.00 | 85 | 1025.1 |
| 20260509205850 | 55 | 244 | 0.9 | 3.5 | 0.00 | 0.00 | 0.00 | 85 | 1024.9 |
| 20260509205343 | 55 | 246 | 0.9 | 3.5 | 0.00 | 0.00 | 0.00 | 85 | 1024.8 |
| 20260509204911 | 55 | 195 | 0.0 | 2.6 | 0.00 | 0.00 | 0.00 | 84 | 1024.8 |
| 20260509204601 | 55 | 195 | 0.0 | 2.6 | 0.00 | 0.00 | 0.00 | 84 | 1024.8 |
| 20260509203826 | 55 | 195 | 0.9 | 2.6 | 0.00 | 0.00 | 0.00 | 84 | 1024.7 |
| 20260509203307 | 55 | 195 | 0.9 | 2.6 | 0.00 | 0.00 | 0.00 | 84 | 1024.6 |
| 20260509202812 | 55 | 195 | 0.9 | 2.6 | 0.00 | 0.00 | 0.00 | 84 | 1024.6 |
| 20260509202307 | 55 | 195 | 0.9 | 1.7 | 0.00 | 0.00 | 0.00 | 84 | 1024.6 |
| 20260509202036 | 55 | 195 | 0.9 | 2.6 | 0.00 | 0.00 | 0.00 | 84 | 1024.5 |
| 20260509201305 | 55 | 195 | 0.9 | 4.3 | 0.00 | 0.00 | 0.00 | 84 | 1024.5 |
| 20260509201035 | 55 | 195 | 0.9 | 4.3 | 0.00 | 0.00 | 0.00 | 84 | 1024.4 |
| 20260509200316 | 55 | 195 | 1.7 | 4.3 | 0.00 | 0.00 | 0.00 | 84 | 1024.5 |
| 20260509195818 | 55 | 191 | 1.7 | 4.3 | 0.00 | 0.00 | 0.00 | 84 | 1024.5 |
| 20260509195246 | 55 | 185 | 1.7 | 3.5 | 0.00 | 0.00 | 0.00 | 84 | 1024.4 |
| 20260509195231 | 55 | 216 | 1.7 | 3.5 | 0.00 | 0.00 | 0.00 | 84 | 1024.3 |
| 20260509194223 | 55 | 198 | 0.9 | 3.5 | 0.00 | 0.00 | 0.00 | 84 | 1024.3 |
| 20260509193655 | 55 | 198 | 0.9 | 3.5 | 0.00 | 0.00 | 0.00 | 84 | 1024.3 |
| 20260509193214 | 55 | 198 | 0.9 | 3.5 | 0.00 | 0.00 | 0.00 | 84 | 1024.3 |
| 20260509192643 | 55 | 198 | 0.9 | 2.6 | 0.00 | 0.00 | 0.00 | 84 | 1024.2 |
| 20260509192137 | 55 | 198 | 0.9 | 2.6 | 0.00 | 0.00 | 0.00 | 84 | 1024.1 |
| 20260509191605 | 55 | 198 | 0.9 | 2.6 | 0.00 | 0.00 | 0.00 | 84 | 1024.1 |
| 20260509191111 | 55 | 199 | 0.9 | 3.5 | 0.00 | 0.00 | 0.00 | 84 | 1024.0 |
| 20260509190600 | 55 | 197 | 0.9 | 3.5 | 0.00 | 0.00 | 0.00 | 84 | 1024.0 |
| 20260509190323 | 55 | 166 | 1.7 | 3.5 | 0.00 | 0.00 | 0.00 | 84 | 1024.0 |
| 20260509185555 | 55 | 189 | 1.7 | 3.5 | 0.00 | 0.00 | 0.00 | 85 | 1024.0 |
| 20260509185053 | 55 | 189 | 0.9 | 3.5 | 0.00 | 0.00 | 0.00 | 85 | 1023.9 |
| 20260509184551 | 55 | 222 | 0.9 | 1.7 | 0.00 | 0.00 | 0.00 | 85 | 1023.9 |
| 20260509184039 | 55 | 223 | 0.9 | 1.7 | 0.00 | 0.00 | 0.00 | 85 | 1024.0 |
| 20260509183553 | 55 | 222 | 0.9 | 1.7 | 0.00 | 0.00 | 0.00 | 85 | 1024.0 |
| 20260509183255 | 55 | 223 | 0.9 | 3.5 | 0.00 | 0.00 | 0.00 | 85 | 1023.9 |
| 20260509182454 | 55 | 222 | 0.9 | 3.5 | 0.00 | 0.00 | 0.00 | 85 | 1023.8 |
| 20260509182006 | 55 | 223 | 0.0 | 3.5 | 0.00 | 0.00 | 0.00 | 85 | 1023.8 |
| 20260509181459 | 55 | 219 | 0.0 | 1.7 | 0.00 | 0.00 | 0.00 | 85 | 1023.8 |
| 20260509180947 | 55 | 219 | 0.9 | 2.6 | 0.00 | 0.00 | 0.00 | 85 | 1023.8 |
| 20260509180442 | 55 | 219 | 0.9 | 2.6 | 0.00 | 0.00 | 0.00 | 86 | 1023.8 |
| 20260509175945 | 55 | 219 | 0.9 | 3.5 | 0.00 | 0.00 | 0.00 | 86 | 1023.7 |
| 20260509175437 | 55 | 222 | 1.7 | 3.5 | 0.00 | 0.00 | 0.00 | 86 | 1023.7 |
| 20260509174946 | 55 | 241 | 1.7 | 2.6 | 0.00 | 0.00 | 0.00 | 86 | 1023.6 |
| 20260509174439 | 55 | 206 | 1.7 | 3.5 | 0.00 | 0.00 | 0.00 | 87 | 1023.5 |
| 20260509173940 | 55 | 206 | 1.7 | 3.5 | 0.00 | 0.00 | 0.00 | 87 | 1023.6 |
| 20260509173440 | 55 | 222 | 0.9 | 3.5 | 0.00 | 0.00 | 0.00 | 87 | 1023.5 |
| 20260509172940 | 55 | 207 | 0.9 | 3.5 | 0.00 | 0.00 | 0.00 | 87 | 1023.4 |
| 20260509172429 | 55 | 185 | 0.9 | 2.6 | 0.00 | 0.00 | 0.00 | 87 | 1023.4 |
| 20260509171939 | 55 | 185 | 0.0 | 1.7 | 0.00 | 0.00 | 0.00 | 88 | 1023.5 |
| 20260509171853 | 55 | 185 | 0.9 | 2.6 | 0.00 | 0.00 | 0.00 | 88 | 1023.5 |
| 20260509171525 | 55 | 185 | 0.0 | 1.7 | 0.00 | 0.00 | 0.00 | 88 | 1023.6 |
| 20260509170411 | 55 | 185 | 0.0 | 2.6 | 0.00 | 0.00 | 0.00 | 88 | 1023.6 |
| 20260509165904 | 54 | 185 | 0.0 | 1.7 | 0.00 | 0.00 | 0.00 | 88 | 1023.7 |
| 20260509165412 | 54 | 185 | 0.0 | 1.7 | 0.00 | 0.00 | 0.00 | 88 | 1023.7 |
| 20260509164915 | 54 | 185 | 0.0 | 1.7 | 0.00 | 0.00 | 0.00 | 89 | 1023.7 |
| 20260509164411 | 54 | 185 | 0.0 | 0.9 | 0.00 | 0.00 | 0.00 | 89 | 1023.7 |
| 20260509163914 | 54 | 185 | 0.0 | 1.7 | 0.00 | 0.00 | 0.00 | 89 | 1023.7 |
| 20260509163402 | 54 | 185 | 0.0 | 1.7 | 0.00 | 0.00 | 0.00 | 89 | 1023.6 |
| 20260509162910 | 54 | 185 | 0.0 | 3.5 | 0.00 | 0.00 | 0.00 | 89 | 1023.7 |
| 20260509162354 | 54 | 185 | 0.0 | 3.5 | 0.00 | 0.00 | 0.00 | 90 | 1023.6 |
| 20260509161847 | 54 | 185 | 0.9 | 3.5 | 0.00 | 0.00 | 0.00 | 90 | 1023.6 |
| 20260509161326 | 54 | 185 | 0.9 | 3.5 | 0.00 | 0.00 | 0.00 | 90 | 1023.5 |
| 20260509160830 | 53 | 132 | 0.0 | 2.6 | 0.00 | 0.00 | 0.00 | 90 | 1023.5 |
| 20260509160312 | 53 | 130 | 0.0 | 1.7 | 0.00 | 0.00 | 0.00 | 90 | 1023.5 |
| 20260509155816 | 53 | 130 | 0.0 | 1.7 | 0.00 | 0.00 | 0.00 | 90 | 1023.6 |
| 20260509155539 | 53 | 130 | 0.0 | 1.7 | 0.00 | 0.00 | 0.00 | 90 | 1023.7 |
| 20260509154807 | 53 | 130 | 0.0 | 1.7 | 0.00 | 0.00 | 0.00 | 90 | 1023.7 |
| 20260509154308 | 53 | 130 | 0.9 | 1.7 | 0.00 | 0.00 | 0.00 | 90 | 1023.6 |
| 20260509154027 | 53 | 130 | 0.0 | 1.7 | 0.00 | 0.00 | 0.00 | 90 | 1023.6 |
| 20260509153307 | 53 | 130 | 0.0 | 1.7 | 0.00 | 0.00 | 0.00 | 90 | 1023.7 |
| 20260509153255 | 53 | 130 | 0.0 | 1.7 | 0.00 | 0.00 | 0.00 | 90 | 1023.8 |
| 20260509152259 | 53 | 130 | 0.0 | 1.7 | 0.00 | 0.00 | 0.00 | 90 | 1023.8 |
| 20260509151757 | 52 | 130 | 0.0 | 1.7 | 0.00 | 0.00 | 0.00 | 89 | 1023.7 |
| 20260509151301 | 53 | 130 | 0.0 | 1.7 | 0.00 | 0.00 | 0.00 | 89 | 1023.8 |
| 20260509150802 | 53 | 119 | 0.0 | 0.9 | 0.00 | 0.00 | 0.00 | 89 | 1023.8 |
| 20260509150258 | 53 | 119 | 0.0 | 1.7 | 0.00 | 0.00 | 0.00 | 89 | 1024.0 |
| 20260509145756 | 53 | 119 | 0.0 | 1.7 | 0.00 | 0.00 | 0.00 | 89 | 1023.9 |
| 20260509145251 | 53 | 119 | 0.0 | 0.9 | 0.00 | 0.00 | 0.00 | 89 | 1024.0 |
| 20260509145009 | 53 | 119 | 0.0 | 0.9 | 0.00 | 0.00 | 0.00 | 89 | 1024.0 |
| 20260509144511 | 53 | 119 | 0.0 | 0.9 | 0.00 | 0.00 | 0.00 | 89 | 1024.0 |
| 20260509143957 | 53 | 119 | 0.0 | 0.9 | 0.00 | 0.00 | 0.00 | 89 | 1024.0 |
| 20260509143208 | 53 | 119 | 0.0 | 0.9 | 0.00 | 0.00 | 0.00 | 88 | 1023.9 |
| 20260509142706 | 53 | 119 | 0.0 | 0.9 | 0.00 | 0.00 | 0.00 | 88 | 1024.0 |
| 20260509142206 | 53 | 119 | 0.0 | 0.9 | 0.00 | 0.00 | 0.00 | 88 | 1024.0 |
| 20260509141713 | 53 | 119 | 0.0 | 0.9 | 0.00 | 0.00 | 0.00 | 88 | 1024.1 |
| 20260509141418 | 53 | 119 | 0.0 | 0.9 | 0.00 | 0.00 | 0.00 | 88 | 1024.1 |
| 20260509140706 | 53 | 119 | 0.0 | 0.9 | 0.00 | 0.00 | 0.00 | 88 | 1024.1 |
| 20260509140204 | 53 | 119 | 0.0 | 0.9 | 0.00 | 0.00 | 0.00 | 88 | 1024.0 |
| 20260509135704 | 53 | 119 | 0.0 | 0.9 | 0.00 | 0.00 | 0.00 | 88 | 1024.1 |
| 20260509135158 | 53 | 119 | 0.0 | 0.9 | 0.00 | 0.00 | 0.00 | 88 | 1024.1 |
| 20260509134639 | 54 | 119 | 0.0 | 0.9 | 0.00 | 0.00 | 0.00 | 88 | 1024.1 |
| 20260509134145 | 54 | 119 | 0.0 | 1.7 | 0.00 | 0.00 | 0.00 | 87 | 1024.1 |
| 20260509133612 | 54 | 119 | 0.0 | 1.7 | 0.00 | 0.00 | 0.00 | 87 | 1024.1 |
| 20260509133358 | 54 | 119 | 0.0 | 0.9 | 0.00 | 0.00 | 0.00 | 87 | 1024.1 |
| 20260509132600 | 54 | 119 | 0.0 | 0.9 | 0.00 | 0.00 | 0.00 | 87 | 1024.1 |
| 20260509132058 | 54 | 119 | 0.0 | 0.0 | 0.00 | 0.00 | 0.00 | 87 | 1024.1 |
| 20260509131559 | 54 | 119 | 0.0 | 1.7 | 0.00 | 0.00 | 0.00 | 87 | 1024.1 |
| 20260509131104 | 54 | 119 | 0.0 | 1.7 | 0.00 | 0.00 | 0.00 | 87 | 1024.1 |
| 20260509130554 | 54 | 119 | 0.0 | 1.7 | 0.00 | 0.00 | 0.00 | 87 | 1024.0 |
| 20260509130321 | 55 | 119 | 0.0 | 1.7 | 0.00 | 0.00 | 0.00 | 87 | 1024.1 |
| 20260509125546 | 55 | 119 | 0.0 | 0.9 | 0.00 | 0.00 | 0.00 | 86 | 1024.1 |
| 20260509125048 | 55 | 119 | 0.0 | 0.9 | 0.00 | 0.00 | 0.00 | 86 | 1024.1 |
| 20260509124544 | 55 | 119 | 0.0 | 0.9 | 0.00 | 0.00 | 0.00 | 86 | 1024.0 |
| 20260509124036 | 55 | 119 | 0.0 | 0.9 | 0.00 | 0.00 | 0.00 | 86 | 1024.1 |
| 20260509123533 | 55 | 119 | 0.0 | 0.9 | 0.00 | 0.00 | 0.00 | 86 | 1024.0 |
| 20260509123029 | 55 | 119 | 0.0 | 0.9 | 0.00 | 0.00 | 0.00 | 86 | 1024.1 |
| 20260509122530 | 56 | 119 | 0.0 | 0.9 | 0.00 | 0.00 | 0.00 | 85 | 1024.1 |
| 20260509122254 | 56 | 119 | 0.0 | 0.9 | 0.00 | 0.00 | 0.00 | 85 | 1024.1 |
| 20260509121757 | 56 | 119 | 0.0 | 0.0 | 0.00 | 0.00 | 0.00 | 85 | 1024.1 |
| 20260509121258 | 56 | 119 | 0.0 | 0.0 | 0.00 | 0.00 | 0.00 | 85 | 1024.1 |
| 20260509120745 | 56 | 119 | 0.0 | 0.0 | 0.00 | 0.00 | 0.00 | 85 | 1024.1 |
| 20260509120040 | 56 | 119 | 0.0 | 0.0 | 0.00 | 0.00 | 0.00 | 85 | 1024.1 |
| 20260509115519 | 56 | 119 | 0.0 | 0.0 | 0.00 | 0.00 | 0.00 | 85 | 1024.1 |
| 20260509115234 | 56 | 119 | 0.0 | 0.9 | 0.00 | 0.00 | 0.00 | 85 | 1024.1 |
| 20260509114511 | 56 | 119 | 0.0 | 0.9 | 0.00 | 0.00 | 0.00 | 85 | 1024.0 |
| 20260509114010 | 57 | 119 | 0.0 | 0.9 | 0.00 | 0.00 | 0.00 | 85 | 1024.1 |
| 20260509113505 | 57 | 119 | 0.0 | 0.9 | 0.00 | 0.00 | 0.00 | 85 | 1024.1 |
| 20260509112955 | 57 | 119 | 0.0 | 0.0 | 0.00 | 0.00 | 0.00 | 84 | 1024.1 |
| 20260509112457 | 57 | 119 | 0.0 | 0.9 | 0.00 | 0.00 | 0.00 | 84 | 1024.1 |
| 20260509112437 | 57 | 119 | 0.0 | 0.9 | 0.00 | 0.00 | 0.00 | 84 | 1024.2 |
| 20260509111450 | 57 | 119 | 0.0 | 0.0 | 0.00 | 0.00 | 0.00 | 84 | 1024.2 |
| 20260509110950 | 57 | 119 | 0.0 | 0.9 | 0.00 | 0.00 | 0.00 | 84 | 1024.2 |
| 20260509110457 | 57 | 119 | 0.0 | 0.9 | 0.00 | 0.00 | 0.00 | 84 | 1024.1 |
| 20260509110000 | 57 | 119 | 0.0 | 0.0 | 0.00 | 0.00 | 0.00 | 84 | 1024.0 |
| 20260509105501 | 58 | 119 | 0.0 | 0.0 | 0.00 | 0.00 | 0.00 | 84 | 1024.1 |
| 20260509105213 | 58 | 119 | 0.0 | 0.9 | 0.00 | 0.00 | 0.00 | 83 | 1024.0 |
| 20260509104450 | 58 | 119 | 0.0 | 0.9 | 0.00 | 0.00 | 0.00 | 83 | 1024.0 |
| 20260509103941 | 58 | 119 | 0.0 | 0.9 | 0.00 | 0.00 | 0.00 | 83 | 1024.0 |
| 20260509103443 | 58 | 119 | 0.0 | 0.9 | 0.00 | 0.00 | 0.00 | 82 | 1024.0 |
| 20260509102949 | 58 | 119 | 0.0 | 0.9 | 0.00 | 0.00 | 0.00 | 82 | 1024.0 |
| 20260509102437 | 58 | 119 | 0.0 | 0.0 | 0.00 | 0.00 | 0.00 | 81 | 1024.0 |
| 20260509101934 | 59 | 119 | 0.0 | 0.0 | 0.00 | 0.00 | 0.00 | 81 | 1024.0 |
| 20260509101421 | 59 | 119 | 0.0 | 0.9 | 0.00 | 0.00 | 0.00 | 81 | 1024.0 |
| 20260509101143 | 59 | 119 | 0.0 | 0.9 | 0.00 | 0.00 | 0.00 | 81 | 1023.9 |
| 20260509100425 | 59 | 119 | 0.0 | 0.9 | 0.00 | 0.00 | 0.00 | 80 | 1023.9 |
| 20260509095924 | 60 | 119 | 0.0 | 0.9 | 0.00 | 0.00 | 0.00 | 80 | 1023.9 |
| 20260509095430 | 60 | 119 | 0.0 | 0.9 | 0.00 | 0.00 | 0.00 | 80 | 1023.8 |
| 20260509094909 | 60 | 119 | 0.0 | 0.9 | 0.00 | 0.00 | 0.00 | 80 | 1023.8 |
| 20260509094408 | 60 | 119 | 0.0 | 0.9 | 0.00 | 0.00 | 0.00 | 79 | 1023.6 |
| 20260509093907 | 60 | 119 | 0.9 | 0.9 | 0.00 | 0.00 | 0.00 | 79 | 1023.6 |
| 20260509093410 | 61 | 119 | 0.9 | 0.9 | 0.00 | 0.00 | 0.00 | 78 | 1023.6 |
| 20260509092838 | 61 | 119 | 0.0 | 0.9 | 0.00 | 0.00 | 0.00 | 77 | 1023.5 |
| 20260509092358 | 62 | 119 | 0.0 | 0.9 | 0.00 | 0.00 | 0.00 | 76 | 1023.5 |
| 20260509091833 | 62 | 119 | 0.0 | 0.9 | 0.00 | 0.00 | 0.00 | 75 | 1023.5 |
| 20260509091545 | 62 | 119 | 0.0 | 0.9 | 0.00 | 0.00 | 0.00 | 75 | 1023.5 |
| 20260509091052 | 62 | 119 | 0.0 | 0.9 | 0.00 | 0.00 | 0.00 | 75 | 1023.4 |
| 20260509090322 | 62 | 119 | 0.9 | 0.9 | 0.00 | 0.00 | 0.00 | 74 | 1023.3 |
| 20260509090300 | 63 | 119 | 0.0 | 0.9 | 0.00 | 0.00 | 0.00 | 74 | 1023.3 |
| 20260509085318 | 63 | 119 | 0.0 | 0.9 | 0.00 | 0.00 | 0.00 | 73 | 1023.2 |
| 20260509084824 | 63 | 119 | 0.0 | 0.9 | 0.00 | 0.00 | 0.00 | 73 | 1023.2 |
| 20260509084311 | 64 | 119 | 0.0 | 0.9 | 0.00 | 0.00 | 0.00 | 72 | 1023.1 |
| 20260509083803 | 64 | 119 | 0.0 | 0.9 | 0.00 | 0.00 | 0.00 | 72 | 1023.1 |
| 20260509083311 | 64 | 119 | 0.0 | 0.9 | 0.00 | 0.00 | 0.00 | 71 | 1023.0 |
| 20260509082756 | 65 | 119 | 0.0 | 0.9 | 0.00 | 0.00 | 0.00 | 70 | 1023.0 |
| 20260509082257 | 65 | 119 | 0.0 | 0.9 | 0.00 | 0.00 | 0.00 | 69 | 1022.9 |
| 20260509081755 | 65 | 119 | 0.0 | 0.9 | 0.00 | 0.00 | 0.00 | 68 | 1022.9 |
| 20260509081318 | 66 | 119 | 0.0 | 0.9 | 0.00 | 0.00 | 0.00 | 68 | 1022.8 |
| 20260509080748 | 66 | 119 | 0.0 | 0.0 | 0.00 | 0.00 | 0.00 | 67 | 1022.7 |
| 20260509080302 | 67 | 119 | 0.0 | 0.0 | 0.00 | 0.00 | 0.00 | 67 | 1022.7 |
| 20260509075741 | 67 | 119 | 0.0 | 0.0 | 0.00 | 0.00 | 0.00 | 66 | 1022.7 |
| 20260509075214 | 67 | 119 | 0.0 | 0.0 | 0.00 | 0.00 | 0.00 | 64 | 1022.6 |
| 20260509074648 | 68 | 119 | 0.0 | 0.0 | 0.00 | 0.00 | 0.00 | 63 | 1022.5 |
| 20260509074148 | 68 | 119 | 0.0 | 0.0 | 0.00 | 0.00 | 0.00 | 63 | 1022.4 |
| 20260509073649 | 69 | 119 | 0.0 | 0.0 | 0.00 | 0.00 | 0.00 | 62 | 1022.4 |
| 20260509073418 | 69 | 119 | 0.0 | 0.0 | 0.00 | 0.00 | 0.00 | 62 | 1022.4 |
| 20260509072703 | 69 | 119 | 0.0 | 0.9 | 0.00 | 0.00 | 0.00 | 61 | 1022.3 |
| 20260509072121 | 69 | 119 | 0.0 | 0.9 | 0.00 | 0.00 | 0.00 | 60 | 1022.3 |
| 20260509071556 | 70 | 119 | 0.0 | 0.9 | 0.00 | 0.00 | 0.00 | 60 | 1022.2 |
| 20260509071103 | 70 | 119 | 0.0 | 0.9 | 0.00 | 0.00 | 0.00 | 60 | 1022.2 |
| 20260509070534 | 70 | 119 | 0.0 | 1.7 | 0.00 | 0.00 | 0.00 | 60 | 1022.2 |
| 20260509070323 | 71 | 119 | 0.0 | 1.7 | 0.00 | 0.00 | 0.00 | 59 | 1022.1 |
| 20260509065513 | 71 | 119 | 0.9 | 3.5 | 0.00 | 0.00 | 0.00 | 59 | 1022.0 |
| 20260509065444 | 71 | 119 | 0.9 | 3.5 | 0.00 | 0.00 | 0.00 | 58 | 1021.9 |
| 20260509064509 | 71 | 119 | 0.9 | 3.5 | 0.00 | 0.00 | 0.00 | 57 | 1021.8 |
| 20260509064215 | 72 | 119 | 1.7 | 4.3 | 0.00 | 0.00 | 0.00 | 55 | 1021.8 |
| 20260509063452 | 72 | 114 | 2.6 | 4.3 | 0.00 | 0.00 | 0.00 | 54 | 1021.8 |
| 20260509062948 | 73 | 114 | 2.6 | 4.3 | 0.00 | 0.00 | 0.00 | 52 | 1021.7 |
| 20260509062438 | 73 | 124 | 1.7 | 6.1 | 0.00 | 0.00 | 0.00 | 50 | 1021.6 |
| 20260509061936 | 73 | 126 | 1.7 | 6.1 | 0.00 | 0.00 | 0.00 | 50 | 1021.6 |
| 20260509061436 | 73 | 96 | 1.7 | 6.1 | 0.00 | 0.00 | 0.00 | 50 | 1021.6 |
| 20260509060936 | 74 | 108 | 2.6 | 7.8 | 0.00 | 0.00 | 0.00 | 50 | 1021.6 |
| 20260509060435 | 74 | 122 | 3.5 | 7.8 | 0.00 | 0.00 | 0.00 | 49 | 1021.5 |
| 20260509055946 | 74 | 126 | 3.5 | 7.8 | 0.00 | 0.00 | 0.00 | 48 | 1021.6 |
| 20260509055427 | 74 | 116 | 3.5 | 7.8 | 0.00 | 0.00 | 0.00 | 47 | 1021.4 |
| 20260509055132 | 75 | 120 | 3.5 | 7.8 | 0.00 | 0.00 | 0.00 | 47 | 1021.4 |
| 20260509054420 | 75 | 123 | 3.5 | 7.0 | 0.00 | 0.00 | 0.00 | 46 | 1021.4 |
| 20260509053851 | 75 | 150 | 3.5 | 7.0 | 0.00 | 0.00 | 0.00 | 45 | 1021.4 |
| 20260509053359 | 75 | 123 | 2.6 | 7.0 | 0.00 | 0.00 | 0.00 | 45 | 1021.4 |
| 20260509052830 | 75 | 117 | 1.7 | 7.0 | 0.00 | 0.00 | 0.00 | 47 | 1021.3 |
| 20260509052319 | 75 | 114 | 2.6 | 7.0 | 0.00 | 0.00 | 0.00 | 47 | 1021.3 |
| 20260509051818 | 75 | 120 | 2.6 | 7.0 | 0.00 | 0.00 | 0.00 | 46 | 1021.4 |
| 20260509051526 | 75 | 126 | 2.6 | 7.0 | 0.00 | 0.00 | 0.00 | 46 | 1021.3 |
| 20260509050800 | 76 | 118 | 3.5 | 7.8 | 0.00 | 0.00 | 0.00 | 46 | 1021.3 |
| 20260509050731 | 76 | 124 | 2.6 | 7.8 | 0.00 | 0.00 | 0.00 | 47 | 1021.2 |
| 20260509050354 | 76 | 106 | 2.6 | 7.8 | 0.00 | 0.00 | 0.00 | 46 | 1021.3 |
| 20260509045259 | 76 | 112 | 2.6 | 7.8 | 0.00 | 0.00 | 0.00 | 46 | 1021.2 |
| 20260509044739 | 76 | 121 | 2.6 | 7.8 | 0.00 | 0.00 | 0.00 | 45 | 1021.2 |
| 20260509044249 | 76 | 116 | 3.5 | 7.8 | 0.00 | 0.00 | 0.00 | 46 | 1021.3 |
| 20260509043709 | 77 | 120 | 2.6 | 7.0 | 0.00 | 0.00 | 0.00 | 46 | 1021.3 |
| 20260509043156 | 77 | 106 | 1.7 | 7.0 | 0.00 | 0.00 | 0.00 | 46 | 1021.3 |
| 20260509042656 | 77 | 180 | 2.6 | 8.7 | 0.00 | 0.00 | 0.00 | 47 | 1021.3 |
| 20260509042144 | 77 | 124 | 2.6 | 8.7 | 0.00 | 0.00 | 0.00 | 46 | 1021.3 |
| 20260509041845 | 77 | 127 | 2.6 | 7.8 | 0.00 | 0.00 | 0.00 | 47 | 1021.3 |
| 20260509041110 | 77 | 116 | 2.6 | 7.8 | 0.00 | 0.00 | 0.00 | 47 | 1021.2 |
| 20260509040820 | 76 | 142 | 3.5 | 8.7 | 0.00 | 0.00 | 0.00 | 47 | 1021.2 |
| 20260509040115 | 77 | 128 | 2.6 | 8.7 | 0.00 | 0.00 | 0.00 | 47 | 1021.2 |
| 20260509035553 | 76 | 116 | 3.5 | 10.4 | 0.00 | 0.00 | 0.00 | 47 | 1021.3 |
| 20260509035107 | 77 | 122 | 2.6 | 10.4 | 0.00 | 0.00 | 0.00 | 47 | 1021.3 |
| 20260509034548 | 76 | 111 | 2.6 | 9.6 | 0.00 | 0.00 | 0.00 | 47 | 1021.3 |
| 20260509034103 | 76 | 107 | 3.5 | 9.6 | 0.00 | 0.00 | 0.00 | 47 | 1021.3 |
| 20260509033557 | 76 | 110 | 3.5 | 8.7 | 0.00 | 0.00 | 0.00 | 47 | 1021.3 |
| 20260509033037 | 76 | 123 | 3.5 | 7.8 | 0.00 | 0.00 | 0.00 | 47 | 1021.4 |
| 20260509032536 | 76 | 122 | 3.5 | 7.8 | 0.00 | 0.00 | 0.00 | 47 | 1021.4 |
| 20260509032044 | 77 | 106 | 2.6 | 9.6 | 0.00 | 0.00 | 0.00 | 47 | 1021.4 |
| 20260509031527 | 77 | 111 | 2.6 | 9.6 | 0.00 | 0.00 | 0.00 | 48 | 1021.4 |
| 20260509031029 | 76 | 227 | 2.6 | 12.2 | 0.00 | 0.00 | 0.00 | 46 | 1021.4 |
| 20260509030743 | 76 | 156 | 3.5 | 12.2 | 0.00 | 0.00 | 0.00 | 47 | 1021.5 |
| 20260509030033 | 76 | 166 | 3.5 | 8.7 | 0.00 | 0.00 | 0.00 | 47 | 1021.5 |
| 20260509025502 | 76 | 162 | 3.5 | 8.7 | 0.00 | 0.00 | 0.00 | 48 | 1021.6 |
| 20260509024947 | 76 | 123 | 2.6 | 8.7 | 0.00 | 0.00 | 0.00 | 48 | 1021.6 |
| 20260509024721 | 76 | 114 | 2.6 | 8.7 | 0.00 | 0.00 | 0.00 | 48 | 1021.7 |
| 20260509023949 | 76 | 126 | 3.5 | 10.4 | 0.00 | 0.00 | 0.00 | 49 | 1021.7 |
| 20260509023442 | 76 | 110 | 3.5 | 10.4 | 0.00 | 0.00 | 0.00 | 48 | 1021.9 |
| 20260509022928 | 76 | 116 | 3.5 | 7.0 | 0.00 | 0.00 | 0.00 | 49 | 1021.9 |
| 20260509022428 | 76 | 115 | 2.6 | 7.0 | 0.00 | 0.00 | 0.00 | 49 | 1022.0 |
| 20260509021911 | 76 | 99 | 2.6 | 7.0 | 0.00 | 0.00 | 0.00 | 50 | 1022.0 |
| 20260509021336 | 76 | 122 | 3.5 | 7.8 | 0.00 | 0.00 | 0.00 | 50 | 1022.1 |
| 20260509020830 | 75 | 212 | 3.5 | 7.8 | 0.00 | 0.00 | 0.00 | 51 | 1022.2 |
| 20260509020550 | 75 | 163 | 2.6 | 7.8 | 0.00 | 0.00 | 0.00 | 52 | 1022.2 |
| 20260509015829 | 75 | 145 | 2.6 | 7.0 | 0.00 | 0.00 | 0.00 | 52 | 1022.3 |
| 20260509015315 | 74 | 135 | 2.6 | 7.0 | 0.00 | 0.00 | 0.00 | 53 | 1022.4 |
| 20260509014813 | 74 | 116 | 2.6 | 6.1 | 0.00 | 0.00 | 0.00 | 53 | 1022.4 |
| 20260509014327 | 73 | 134 | 1.7 | 4.3 | 0.00 | 0.00 | 0.00 | 55 | 1022.5 |
| 20260509013810 | 73 | 208 | 1.7 | 5.2 | 0.00 | 0.00 | 0.00 | 55 | 1022.6 |
| 20260509013320 | 73 | 189 | 2.6 | 5.2 | 0.00 | 0.00 | 0.00 | 55 | 1022.7 |
| 20260509012812 | 72 | 202 | 2.6 | 5.2 | 0.00 | 0.00 | 0.00 | 55 | 1022.7 |
| 20260509012309 | 72 | 180 | 2.6 | 6.1 | 0.00 | 0.00 | 0.00 | 55 | 1022.9 |
| 20260509011809 | 72 | 165 | 2.6 | 7.0 | 0.00 | 0.00 | 0.00 | 54 | 1022.9 |
| 20260509011538 | 72 | 175 | 2.6 | 7.0 | 0.00 | 0.00 | 0.00 | 54 | 1023.0 |
| 20260509010757 | 72 | 195 | 2.6 | 7.8 | 0.00 | 0.00 | 0.00 | 54 | 1023.1 |
| 20260509010302 | 72 | 108 | 2.6 | 7.8 | 0.00 | 0.00 | 0.00 | 55 | 1023.1 |
| 20260509005800 | 72 | 99 | 2.6 | 7.0 | 0.00 | 0.00 | 0.00 | 54 | 1023.1 |
| 20260509005300 | 72 | 159 | 1.7 | 7.0 | 0.00 | 0.00 | 0.00 | 54 | 1023.1 |
| 20260509005031 | 72 | 185 | 1.7 | 4.3 | 0.00 | 0.00 | 0.00 | 53 | 1023.2 |
| 20260509004521 | 72 | 161 | 1.7 | 4.3 | 0.00 | 0.00 | 0.00 | 53 | 1023.2 |
| 20260509003805 | 72 | 195 | 2.6 | 7.0 | 0.00 | 0.00 | 0.00 | 54 | 1023.3 |
| 20260509003253 | 71 | 175 | 3.5 | 7.8 | 0.00 | 0.00 | 0.00 | 53 | 1023.3 |
| 20260509002750 | 71 | 93 | 1.7 | 7.8 | 0.00 | 0.00 | 0.00 | 53 | 1023.3 |
| 20260509002250 | 71 | 192 | 1.7 | 7.0 | 0.00 | 0.00 | 0.00 | 55 | 1023.3 |
| 20260509001750 | 71 | 255 | 1.7 | 4.3 | 0.00 | 0.00 | 0.00 | 55 | 1023.3 |
| 20260509001252 | 71 | 215 | 1.7 | 4.3 | 0.00 | 0.00 | 0.00 | 58 | 1023.4 |
| 20260509000730 | 70 | 122 | 2.6 | 4.3 | 0.00 | 0.00 | 0.00 | 58 | 1023.4 |
| 20260509000223 | 70 | 236 | 2.6 | 5.2 | 0.00 | 0.00 | 0.00 | 59 | 1023.3 |
| 20260508235658 | 69 | 185 | 2.6 | 5.2 | 0.00 | 0.00 | 0.00 | 59 | 1023.3 |
| 20260508235204 | 69 | 246 | 1.7 | 5.2 | 0.00 | 0.00 | 0.00 | 61 | 1023.4 |
| 20260508234648 | 68 | 196 | 1.7 | 3.5 | 0.00 | 0.00 | 0.00 | 64 | 1023.4 |
| 20260508234136 | 67 | 157 | 1.7 | 3.5 | 0.00 | 0.00 | 0.00 | 63 | 1023.4 |
| 20260508233609 | 66 | 203 | 1.7 | 3.5 | 0.00 | 0.00 | 0.00 | 64 | 1023.4 |
| 20260508233109 | 65 | 202 | 1.7 | 3.5 | 0.00 | 0.00 | 0.00 | 66 | 1023.4 |
| 20260508232617 | 64 | 238 | 1.7 | 3.5 | 0.00 | 0.00 | 0.00 | 67 | 1023.3 |
| 20260508232105 | 64 | 238 | 1.7 | 4.3 | 0.00 | 0.00 | 0.00 | 67 | 1023.3 |
| 20260508231749 | 63 | 245 | 1.7 | 4.3 | 0.00 | 0.00 | 0.00 | 68 | 1023.2 |